Location: Norton Heath
(51.7167°N, 0.3167°E)
Time: 12:42:22
(UTC+00:00)

Daily predictions for brighter satellites

Satellite Brightness Start Highest point End
(mag) Time Altitude Azimuth Time Altitude Azimuth Time Altitude Azimuth
BREEZE M DEB (TANK) 4.1 20:00:20 10° SW 20:04:02 55° SSE 20:15:32 10° ENE
Cosmos 1833 Rocket 3.9 20:02:53 10° NNW 20:07:52 30° NE 20:12:50 10° ESE
IGS 5A 3.7 20:05:50 10° SSE 20:09:53 54° ENE 20:13:58 10° N
Cosmos 2221 3.2 20:07:52 10° SSW 20:12:07 61° WNW 20:16:27 10° N
BREEZE-M R/B 3.5 20:10:43 10° SSW 20:12:25 16° SSE 20:14:03 10° ESE
S3M 4.2 20:06:51 10° SSE 20:13:02 55° E 20:19:12 10° NNE
USA 186 4.1 20:12:42 10° SW 20:14:28 17° W 20:16:10 10° NW
Cosmos 1666 Rocket 4.2 20:11:03 10° N 20:15:15 40° ENE 20:19:23 10° SE
USA 215 3.9 20:13:48 10° ENE 20:20:11 57° N 20:26:33 10° W
USA 305 3.3 20:18:38 10° WNW 20:22:53 65° N 20:27:09 10° E
Cosmos 1933 3.8 20:19:28 10° SSE 20:23:17 43° E 20:27:07 10° NNE
USA 245 3.4 20:23:41 10° SE 20:25:33 23° ENE 20:27:27 10° NNE
Cosmos 1242 Rocket 3.1 20:25:28 10° SSE 20:28:47 37° E 20:32:05 10° NNE
OBJECT-B 3.2 20:26:29 10° SSW 20:29:07 23° W 20:31:48 10° NW
BREEZE M DEB (TANK) 2.3 20:25:10 10° W 20:31:34 65° S 20:34:03 10° ESE
Cosmos 1553 Rocket 4.1 20:25:30 10° SSW 20:31:38 83° W 20:37:55 10° N
Cosmos 773 Rocket 4.5 20:26:51 10° NNW 20:32:02 50° ENE 20:37:01 11° SE
Cosmos 1437 Rocket 2.8 20:28:50 10° S 20:32:42 90° E 20:36:42 10° NNE
Resurs 01 Rocket 1.8 20:31:03 10° S 20:35:30 76° WSW 20:39:59 10° NNW
Sich 1 3.1 20:33:19 10° NNW 20:37:39 81° W 20:42:00 10° S
COSMOS 2406 3.9 20:33:06 10° NNW 20:38:32 44° NE 20:43:43 11° ESE
Spot 2 Rocket 3.8 20:34:16 10° SE 20:39:10 53° ENE 20:44:04 10° N
SJ 16-02 3.5 20:39:03 10° E 20:39:43 10° E 20:40:22 10° E
Meteor 1-20 Rocket 4.3 20:34:57 10° NNW 20:40:39 85° W 20:46:13 10° S
Cosmos 2082 Rocket 3.5 20:36:12 10° NNW 20:41:05 29° NE 20:45:58 10° ESE
USA 306 3.2 20:37:47 10° WNW 20:42:03 69° N 20:46:19 10° E
CZ-4C R/B 3.1 20:36:41 10° NW 20:43:30 69° NE 20:51:18 11° ESE
Cosmos 1500 3.9 20:40:46 10° N 20:44:18 37° ENE 20:47:10 14° SE
Gbstr 26 Del rocket 4.3 20:37:53 10° WSW 20:45:50 83° SSE 20:52:39 10° E
Cosmos 1782 3.2 20:43:34 10° SSE 20:47:22 43° E 20:51:10 10° NNE
ERS-1 Rocket 3.4 20:50:52 13° SE 20:55:06 50° ENE 20:59:58 10° N
SPOT 5 3.4 20:52:52 14° SE 20:57:06 51° ENE 21:02:12 10° N
Cosmos 1503 Rocket 4.0 20:52:01 10° S 20:57:08 65° ESE 21:02:18 10° NNE
ERBS 4.0 20:55:18 10° WNW 20:58:21 32° N 21:01:23 10° ENE
Intercosmos 24 4.0 20:55:46 10° SSW 20:59:29 67° WNW 21:03:05 10° N
SOZ 4.3 20:57:06 10° WSW 20:59:40 55° SSE 21:01:55 10° E
USA 290 3.4 20:57:01 10° NW 21:00:04 37° WSW 21:02:57 11° S
Cosmos 1602 3.9 20:58:52 10° NNW 21:02:44 74° W 21:06:20 12° S
CREW DRAGON DEMO-1 DEB 2.3 21:00:05 10° W 21:02:45 86° S 21:04:38 17° E
Cosmos 1151 Rocket 3.1 20:58:29 10° S 21:02:47 64° E 21:07:09 10° NNE
Terra 2.5 21:02:23 16° SE 21:05:54 43° ENE 21:10:24 10° N
USA 307 3.0 21:03:07 10° WNW 21:07:24 76° NNE 21:11:25 12° E
Cosmos 2278 Rocket 3.1 21:05:44 15° SSE 21:09:23 28° ESE 21:14:08 10° NE
CZ-2C R/B 3.7 21:06:51 10° NNE 21:11:21 88° WNW 21:15:52 10° SSW
X-37B 2.2 21:17:16 10° WSW 21:19:43 20° SSW 21:20:09 20° S
Cosmos 1515 Rocket 3.9 21:17:35 18° SSE 21:20:33 46° E 21:24:47 10° NNE
USA 308 2.9 21:16:36 10° WNW 21:20:54 82° NNE 21:24:23 15° ESE
SWARM C 4.4 21:17:34 10° N 21:20:55 74° E 21:22:52 22° S
SWARM A 4.1 21:17:41 10° N 21:21:01 77° E 21:23:01 22° S
Cosmos 1844 Rocket 3.3 21:15:57 10° SW 21:21:27 59° NW 21:27:01 10° NNE
Cosmos 2084 4.0 21:17:54 10° S 21:21:39 34° SE 21:25:30 10° ENE
Cosmos 1536 4.3 21:18:28 10° NNE 21:21:49 24° ENE 21:23:48 17° ESE
SPOT 1/Viking Rocket 4.1 21:16:47 10° S 21:21:50 58° W 21:26:59 10° NNW
ARIANE 5 R/B 2.8 21:20:39 16° S 21:24:08 70° WSW 21:28:29 10° NNW
JB-3 4.2 21:21:06 10° NNE 21:25:01 67° E 21:27:55 17° S
Cosmos 1437 2.3 21:25:47 24° S 21:27:18 76° ESE 21:30:10 10° NNE
Cosmos 1633 Rocket 3.7 21:23:12 10° NNW 21:27:29 51° W 21:31:23 12° S
Cosmos 1354 Rocket 4.0 21:23:12 10° SSW 21:28:26 85° WNW 21:33:44 10° NNE
Cosmos 1812 2.7 21:31:31 22° S 21:33:52 63° E 21:37:43 10° NNE
Cosmos 1470 Rocket 3.8 21:32:17 10° NNW 21:36:46 70° W 21:39:56 19° S
Cosmos 2184 Rocket 4.0 21:30:47 10° N 21:37:04 70° ENE 21:41:19 21° SSE
Meteor 1-5 Rocket 4.1 21:32:48 10° NNW 21:38:17 87° W 21:42:00 20° S
Cosmos 1328 Rocket 3.9 21:36:54 10° SSW 21:41:19 68° WNW 21:45:45 10° N
NOSS 3-4 (A) 3.9 21:34:30 10° NW 21:41:19 78° NE 21:47:03 19° SE
NOSS 3-4 (C) 3.9 21:34:36 10° NW 21:41:25 77° NE 21:47:10 19° SE
ATLAS 5 CENTAUR R/B 3.4 21:37:46 10° WNW 21:42:51 36° WSW 21:47:13 16° S
Cosmos 2074 Rocket 4.0 21:38:41 10° N 21:45:02 81° E 21:49:22 22° SSE
CARTOSAT-1 4.4 21:44:07 16° SSW 21:47:17 46° W 21:51:28 10° NNW
Cosmos 1666 2.6 21:46:43 10° NNW 21:50:28 80° W 21:52:11 30° S
Cosmos 1933 Rocket 3.6 21:47:00 10° NNW 21:51:20 74° W 21:53:48 25° S
Cosmos 1833 Rocket 2.8 21:46:39 10° NW 21:52:17 68° WSW 21:55:42 24° SSE
NOSS 3-3 (A) 3.9 21:46:44 10° SW 21:52:33 75° SE 21:59:17 10° NE
NOSS 3-3 (C) 3.9 21:46:50 10° SSW 21:52:39 74° SE 21:59:23 10° NE
ATLAS 2AS CENTAUR R/B 3.1 21:47:25 10° NW 21:54:57 64° NE 22:00:31 17° ESE
Meteor 2-12 Rocket 4.4 21:49:17 10° N 21:55:22 73° ENE 21:59:02 25° SSE
Cosmos 1743 4.1 21:52:15 10° N 21:55:36 27° ENE 21:56:52 23° ESE
Nadezhda 1 Rocket 4.3 21:51:52 23° SSE 21:55:38 52° E 22:01:40 10° NNE
BREEZE-M DEB (TANK) 2.5 21:56:45 10° W 21:57:58 27° WSW 21:57:58 27° WSW
Cosmos 1538 Rocket 4.2 21:55:34 10° NNW 22:00:55 66° WSW 22:03:56 26° S
BREEZE-M DEB (TANK) 3.2 21:52:54 10° WSW 22:01:54 88° NNW 22:04:40 10° E
USA 215 3.6 21:56:22 10° E 22:02:50 67° NNE 22:09:20 10° WNW
USA 305 2.9 21:58:40 10° WNW 22:02:56 68° SSW 22:04:41 34° SE
Iridium 4 Rocket 3.9 22:01:47 19° S 22:06:01 79° W 22:11:59 10° N
Cosmos 1610 Rocket 4.4 22:00:56 10° N 22:07:06 78° ENE 22:10:38 27° SSE
Resurs 01 Rocket 4.5 22:11:53 10° W 22:12:47 11° W 22:13:42 10° WNW
Cosmos 158 Rocket 3.8 22:08:20 10° NNW 22:13:14 79° WSW 22:15:28 33° SSE
Cosmos 1733 Rocket 4.1 22:10:34 10° N 22:14:31 33° ENE 22:16:02 26° ESE
SJ 16-02 1.2 22:15:14 29° SSW 22:17:26 76° ESE 22:21:54 10° NNE
Cosmos 1680 Rocket 3.6 22:13:32 10° NNW 22:18:53 70° ENE 22:21:27 31° SE
Cosmos 2228 Rocket 3.0 22:17:34 34° S 22:19:28 79° E 22:23:57 10° NNE
Cosmos 2341 Rocket 4.4 22:13:27 10° N 22:19:46 56° ENE 22:23:08 28° SE
Meteor 1-27 Rocket 3.8 22:18:37 28° S 22:21:46 69° E 22:27:39 10° NNE
USA 306 3.0 22:17:49 10° WNW 22:22:01 55° SSW 22:23:05 42° SSE
COSMOS 2406 4.0 22:17:33 10° NW 22:22:51 42° WSW 22:25:47 24° SSW
Cosmos 1818 4.3 22:18:27 10° NW 22:23:48 49° NE 22:27:40 18° ESE
Cosmos 2082 Rocket 2.2 22:20:05 10° NNW 22:25:41 70° WSW 22:28:19 32° S
H-2A R/B 4.1 22:27:36 10° N 22:31:43 55° WNW 22:34:16 22° SW
CZ-4C R/B 3.6 22:25:19 10° NW 22:32:05 44° WSW 22:36:28 25° S
Gbstr 26 Del rocket 4.1 22:25:47 10° W 22:33:22 88° S 22:39:35 10° E
BREEZE-M R/B 4.3 22:31:25 10° WSW 22:31:52 14° WSW 22:31:52 14° WSW
ERBS 3.5 22:31:50 10° WNW 22:34:59 39° NNE 22:37:05 18° ENE
Cosmos 1271 Rocket 3.4 22:35:27 26° SW 22:37:26 53° WNW 22:41:24 10° N
Cosmos 2218 Rocket 4.4 22:32:53 10° N 22:38:59 52° ENE 22:42:06 28° SE
Meteor 1-11 Rocket 4.3 22:36:11 10° NNW 22:42:00 53° W 22:45:14 26° SSW
Terra 3.2 22:41:15 19° SW 22:43:47 29° W 22:47:59 10° NNW
Okean 1 3.9 22:46:34 39° ESE 22:47:01 40° E 22:50:48 10° NNE
USA 307 3.3 22:43:12 10° WNW 22:47:16 42° SW 22:47:30 42° SSW
Cosmos 1340 Rocket 2.9 22:44:36 10° NNW 22:48:41 74° W 22:49:40 50° S
Cosmos 2278 Rocket 2.6 22:47:30 10° SW 22:53:06 62° NW 22:58:44 10° NNE
Cosmos 923 Rocket 4.4 22:48:51 10° NNW 22:53:58 53° WSW 22:55:53 35° SSW
Cosmos 1544 3.4 22:51:08 10° NNW 22:54:40 52° W 22:55:12 46° SW
Spot 4 3.8 22:53:27 42° SSE 22:55:08 87° WSW 23:00:03 10° NNW
Cosmos 1515 3.7 22:55:28 54° ESE 22:55:47 57° E 22:59:30 10° NNE
Cosmos 1862 Rocket 3.9 22:57:00 42° SE 22:57:44 47° E 23:01:54 10° NNE
Cosmos 1536 3.8 22:54:35 10° NNW 22:58:22 38° W 22:59:30 31° SW
Cosmos 1898 Rocket 3.6 22:57:39 40° S 22:59:22 61° ESE 23:04:39 10° NNE
USA 308 3.7 22:56:45 10° WNW 23:00:29 35° SW 23:00:29 35° SW
Cosmos 2084 4.4 22:56:59 10° WSW 23:01:03 48° NW 23:05:14 10° NE
Cosmos 2369 Rocket 3.4 23:03:27 23° ESE 23:04:19 24° ESE 23:08:43 10° NE
RESURS DK-1 4.2 23:03:41 10° NNW 23:07:15 26° NE 23:09:53 15° E
Gblst 52 Del rocket 4.4 23:00:57 10° W 23:07:58 83° SSW 23:14:03 10° ESE
Meteor 2-9 Rocket 4.2 23:02:24 10° NNW 23:08:18 81° ENE 23:10:35 39° SSE
SL-8 Rocket 4.0 23:02:22 10° N 23:08:45 89° W 23:11:34 36° S
COBE Rocket 4.3 23:07:05 37° SE 23:08:56 60° ENE 23:14:00 10° N
Cosmos 1975 2.9 23:07:36 10° N 23:11:34 61° ENE 23:12:12 52° ESE
Cosmos 2084 Rocket 3.4 23:07:53 10° NW 23:12:09 85° NE 23:13:19 48° SE
Cosmos 1943 Rocket 2.5 23:11:55 39° SSE 23:13:21 47° ESE 23:18:43 10° NE
SAR-Lupe-2 4.1 23:11:11 10° NNE 23:14:31 43° E 23:14:31 43° E
ALOS 2 2.5 23:16:05 53° SSE 23:17:07 89° ENE 23:21:32 10° NNW
Cosmos 44 3.5 23:13:49 10° NW 23:19:14 65° SW 23:20:48 44° S
DNEPR-1 R/B 4.5 23:19:57 40° SSE 23:20:56 44° SE 23:25:40 10° NE
Cosmos 1707 Rocket 3.9 23:20:02 39° SW 23:21:24 59° WNW 23:25:46 10° N
Meteor 2-4 Rocket 4.3 23:20:31 35° SE 23:22:24 47° E 23:27:47 10° NNE
Cosmos 990 Rocket 4.0 23:20:01 33° SW 23:22:25 77° WNW 23:27:43 10° NNE
Okean 1-7 3.8 23:30:15 35° ESE 23:30:49 36° E 23:34:45 10° NNE
Cosmos 1743 4.0 23:27:58 10° NNW 23:31:21 29° W 23:31:55 28° WSW
Cosmos 372 Rocket 4.3 23:30:36 42° SE 23:31:39 48° ESE 23:36:33 10° NE
Cosmos 1238 Rocket 4.2 23:28:01 10° NNW 23:34:18 58° W 23:36:39 35° SSW
Meteor 1-18 Rocket 4.1 23:33:04 41° S 23:35:08 83° E 23:40:47 10° NNE
SL-24 R/B - RUBIN 2 4.3 23:31:15 10° NW 23:36:34 47° WSW 23:37:28 42° SSW
SeaSat 1 3.2 23:33:06 10° NE 23:37:39 36° ESE 23:38:19 34° SE
Cosmos 2242 Rocket 3.9 23:40:22 45° SE 23:41:07 51° E 23:45:27 10° NNE
ATLAS 2AS CENTAUR R/B 3.3 23:38:51 10° NW 23:45:42 43° WSW 23:47:56 34° SSW
USA 215 3.2 23:42:20 28° SE 23:45:55 66° SW 23:52:27 10° WNW
Cosmos 2297 3.7 23:45:51 33° SW 23:48:30 80° WNW 23:54:14 10° NNE
Cosmos 1733 Rocket 4.2 23:48:28 10° NNW 23:52:16 30° W 23:53:07 28° WSW
SJ 16-02 3.8 23:53:25 10° W 23:56:34 19° NW 23:59:45 10° N
